DW3800 Weather Reports


Display with metric or nautical units.
time (UTC)temp
F
wind
direction
speed
MPH
gust
MPH
rain 1hr
in
rain 24hr
in
rain mn
in
humidity
%
barometer
mb
20260901081234 67 245 0.0 0.0 0.00 0.00 0.00 93 1016.4
20260901080730 67 246 0.0 0.0 0.00 0.00 0.00 93 1016.2
20260901080228 67 288 0.0 0.0 0.00 0.00 0.00 93 1016.5
20260901075723 67 242 0.0 0.0 0.00 0.00 0.00 93 1016.7
20260901075218 67 219 0.0 0.0 0.00 0.00 0.00 93 1016.6
20260901074712 67 228 0.0 0.0 0.00 0.00 0.00 92 1016.6
20260901074208 67 225 0.0 0.0 0.00 0.00 0.00 92 1016.5
20260901073704 68 228 0.0 0.0 0.00 0.00 0.00 92 1016.7
20260901073159 68 235 0.0 0.0 0.00 0.00 0.00 92 1016.8
20260901072654 68 239 0.0 0.0 0.00 0.00 0.00 92 1016.8
20260901072149 68 210 0.0 0.0 0.00 0.00 0.00 91 1016.8
20260901071648 67 208 0.0 0.0 0.00 0.00 0.00 91 1016.8
20260901071143 68 208 0.0 0.0 0.00 0.00 0.00 91 1016.7
20260901070637 68 215 0.0 0.0 0.00 0.00 0.00 91 1016.7
20260901070133 68 246 0.0 0.0 0.00 0.00 0.00 90 1016.7
20260901065632 68 248 0.0 0.0 0.00 0.00 0.00 91 1016.7
20260901065127 68 219 0.0 0.0 0.00 0.00 0.00 90 1016.8
20260901064624 68 219 0.0 0.0 0.00 0.00 0.00 90 1017.0
20260901064120 68 218 0.0 0.0 0.00 0.00 0.00 90 1016.9
20260901063616 68 218 0.0 0.0 0.00 0.00 0.00 89 1017.1
20260901063112 69 219 0.0 0.0 0.00 0.00 0.00 89 1017.1
20260901062608 69 203 0.0 0.0 0.00 0.00 0.00 88 1017.1
20260901062103 69 209 0.0 0.0 0.00 0.00 0.00 87 1017.2
20260901061600 69 209 0.0 0.0 0.00 0.00 0.00 86 1017.0
20260901061054 70 210 0.0 0.0 0.00 0.00 0.00 85 1017.0
20260901060549 71 217 0.0 0.0 0.00 0.00 0.00 84 1016.8
20260901060044 71 202 0.0 0.0 0.00 0.00 0.00 84 1016.9
20260901055539 71 195 0.0 0.0 0.00 0.00 0.00 84 1017.0
20260901055036 71 211 0.0 0.0 0.00 0.00 0.00 83 1016.7
20260901054533 71 202 0.0 0.0 0.00 0.00 0.00 83 1016.8
20260901054029 72 208 0.0 0.0 0.00 0.00 0.00 81 1016.7
20260901053525 72 219 1.0 1.0 0.00 0.00 0.00 81 1016.8
20260901053020 73 200 0.0 1.0 0.00 0.00 0.00 80 1016.4
20260901052520 73 218 1.0 2.0 0.00 0.00 0.00 80 1016.6
20260901052020 73 222 0.0 2.0 0.00 0.00 0.00 80 1016.5
20260901051515 73 223 0.0 1.0 0.00 0.00 0.00 80 1016.3
20260901051014 73 201 0.0 1.0 0.00 0.00 0.00 80 1016.3
20260901050509 73 208 0.0 1.0 0.00 0.00 0.00 80 1016.3
20260901050004 72 227 0.0 2.0 0.00 0.00 0.00 81 1016.1
20260901045459 71 267 0.0 0.0 0.00 0.00 0.00 83 1016.1
20260901044954 71 278 0.0 0.0 0.00 0.00 0.00 83 1016.2
20260901044450 70 273 0.0 0.0 0.00 0.00 0.00 84 1016.2
20260901043946 71 273 0.0 0.0 0.00 0.00 0.00 83 1016.0
20260901043442 70 299 1.0 1.0 0.00 0.00 0.00 84 1016.1
20260901042941 70 148 0.0 0.0 0.00 0.00 0.00 84 1016.1
20260901042436 70 207 0.0 0.0 0.00 0.00 0.00 83 1016.0
20260901041931 71 207 0.0 0.0 0.00 0.00 0.00 82 1016.1
20260901041426 71 208 0.0 0.0 0.00 0.00 0.00 82 1016.0
20260901040925 71 209 0.0 0.0 0.00 0.00 0.00 81 1016.1
20260901040420 71 201 0.0 0.0 0.00 0.00 0.00 80 1016.3
20260901035914 72 180 0.0 0.0 0.00 0.00 0.00 78 1016.1
20260901035413 72 180 0.0 0.0 0.00 0.00 0.00 78 1016.3
20260901034911 73 207 0.0 0.0 0.00 0.00 0.00 76 1016.2
20260901034406 73 218 0.0 0.0 0.00 0.00 0.00 75 1016.3
20260901033901 73 229 0.0 0.0 0.00 0.00 0.00 75 1016.5
20260901033401 72 225 0.0 0.0 0.00 0.00 0.00 75 1016.3
20260901032859 72 213 0.0 0.0 0.00 0.00 0.00 76 1016.2
20260901032358 72 226 0.0 0.0 0.00 0.00 0.00 75 1016.2
20260901031854 72 226 0.0 0.0 0.00 0.00 0.00 74 1016.2
20260901031350 73 226 0.0 0.0 0.00 0.00 0.00 73 1016.2
20260901030849 73 226 0.0 0.0 0.00 0.00 0.00 72 1016.0
20260901030345 74 226 0.0 0.0 0.00 0.00 0.00 72 1016.1
20260901025843 74 228 0.0 0.0 0.00 0.00 0.00 70 1016.2
20260901025338 75 243 0.0 0.0 0.00 0.00 0.00 69 1015.9
20260901024833 75 244 0.0 0.0 0.00 0.00 0.00 69 1015.9
20260901024332 75 229 0.0 0.0 0.00 0.00 0.00 69 1016.1
20260901023830 76 229 0.0 0.0 0.00 0.00 0.00 67 1015.8
20260901023326 77 244 0.0 0.0 0.00 0.00 0.00 65 1015.7
20260901022821 77 214 0.0 0.0 0.00 0.00 0.00 64 1015.7
20260901022317 76 212 0.0 2.0 0.00 0.00 0.00 64 1015.8
20260901021812 76 217 0.0 0.0 0.00 0.00 0.00 65 1015.9
20260901021308 76 202 0.0 0.0 0.00 0.00 0.00 65 1015.6
20260901020802 77 207 0.0 0.0 0.00 0.00 0.00 65 1015.7
20260901020257 77 190 0.0 0.0 0.00 0.00 0.00 65 1015.7
20260901015752 77 213 0.0 2.0 0.00 0.00 0.00 63 1015.7
20260901015248 78 207 0.0 0.0 0.00 0.00 0.00 63 1015.7
20260901014747 78 209 0.0 0.0 0.00 0.00 0.00 63 1015.5
20260901014243 77 239 1.0 1.0 0.00 0.00 0.00 64 1015.6
20260901013739 78 245 0.0 0.0 0.00 0.00 0.00 65 1015.2
20260901013234 78 289 0.0 0.0 0.00 0.00 0.00 64 1015.4
20260901012730 79 294 0.0 0.0 0.00 0.00 0.00 64 1015.1
20260901012229 79 267 0.0 0.0 0.00 0.00 0.00 62 1015.2
20260901011726 79 300 0.0 0.0 0.00 0.00 0.00 62 1014.9
20260901011220 79 278 0.0 0.0 0.00 0.00 0.00 62 1015.0
20260901010714 79 274 0.0 0.0 0.00 0.00 0.00 60 1015.1
20260901010209 80 243 0.0 0.0 0.00 0.00 0.00 58 1015.4
20260901005708 80 243 0.0 0.0 0.00 0.00 0.00 57 1015.0
20260901005204 80 254 0.0 0.0 0.00 0.00 0.00 58 1015.0
20260901004703 80 231 0.0 0.0 0.00 0.00 0.00 57 1014.9
20260901004157 80 231 0.0 0.0 0.00 0.00 0.00 57 1014.9
20260901003652 81 231 0.0 0.0 0.00 0.00 0.00 59 1015.1
20260901003151 81 219 0.0 0.0 0.00 0.00 0.00 58 1015.0
20260901002645 82 215 0.0 0.0 0.00 0.00 0.00 59 1015.0
20260901002140 83 216 0.0 0.0 0.00 0.00 0.00 58 1015.1
20260901001636 84 212 0.0 0.0 0.00 0.00 0.00 55 1014.9
20260901001131 85 213 0.0 0.0 0.00 0.00 0.00 55 1014.8
20260901000626 85 213 0.0 0.0 0.00 0.00 0.00 57 1014.9
20260901000121 85 222 0.0 0.0 0.00 0.00 0.00 56 1014.7
20260831235615 85 204 0.0 0.0 0.00 0.00 0.00 55 1014.8
20260831235111 86 230 0.0 0.0 0.00 0.00 0.00 55 1014.9
20260831234610 86 229 0.0 0.0 0.00 0.00 0.00 53 1014.7
20260831234106 86 230 0.0 0.0 0.00 0.00 0.00 53 1014.8
20260831233601 87 7 1.0 1.0 0.00 0.00 0.00 50 1014.6
20260831233056 87 205 0.0 1.0 0.00 0.00 0.00 49 1014.6
20260831232551 88 239 1.0 1.0 0.00 0.00 0.00 48 1014.6
20260831232047 88 186 0.0 2.0 0.00 0.00 0.00 47 1014.6
20260831231543 89 15 2.0 2.0 0.00 0.00 0.00 44 1014.6
20260831231039 89 320 1.0 1.0 0.00 0.00 0.00 43 1014.7
20260831230534 89 201 1.0 1.0 0.00 0.00 0.00 43 1014.7
20260831230034 89 232 1.0 2.0 0.00 0.00 0.00 44 1014.6
20260831225529 89 237 1.0 6.0 0.00 0.00 0.00 43 1014.6
20260831225024 89 194 1.0 2.0 0.00 0.00 0.00 43 1014.6
20260831224519 89 210 0.0 2.0 0.00 0.00 0.00 45 1014.6
20260831224014 88 212 0.0 2.0 0.00 0.00 0.00 47 1014.3
20260831223509 88 244 0.0 2.0 0.00 0.00 0.00 48 1014.5
20260831223006 88 233 1.0 1.0 0.00 0.00 0.00 49 1014.5
20260831222502 89 219 0.0 1.0 0.00 0.00 0.00 47 1014.5
20260831222001 89 249 1.0 2.0 0.00 0.00 0.00 45 1014.3
20260831221457 89 215 0.0 0.0 0.00 0.00 0.00 47 1014.2
20260831220952 90 354 2.0 3.0 0.00 0.00 0.00 43 1014.1
20260831220447 90 199 1.0 1.0 0.00 0.00 0.00 43 1014.5
20260831215942 90 219 1.0 3.0 0.00 0.00 0.00 42 1014.3
20260831215438 91 211 0.0 2.0 0.00 0.00 0.00 45 1014.3
20260831214934 90 214 1.0 1.0 0.00 0.00 0.00 46 1014.2
20260831214431 91 212 1.0 5.0 0.00 0.00 0.00 45 1014.2
20260831213927 91 207 1.0 3.0 0.00 0.00 0.00 48 1014.1
20260831213423 91 245 1.0 2.0 0.00 0.00 0.00 48 1014.1
20260831212923 91 237 1.0 2.0 0.00 0.00 0.00 48 1014.1
20260831212420 91 193 0.0 1.0 0.00 0.00 0.00 49 1014.0
20260831211919 90 255 4.0 5.0 0.00 0.00 0.00 50 1014.0
20260831211414 90 348 3.0 6.0 0.00 0.00 0.00 50 1013.8
20260831210908 91 274 2.0 3.0 0.00 0.00 0.00 49 1014.1
20260831210403 90 198 1.0 6.0 0.00 0.00 0.00 51 1014.1
20260831205859 91 130 2.0 5.0 0.00 0.00 0.00 50 1013.9
20260831205354 91 200 3.0 3.0 0.00 0.00 0.00 52 1014.2
20260831204849 90 186 1.0 2.0 0.00 0.00 0.00 51 1014.1
20260831204348 91 196 3.0 3.0 0.00 0.00 0.00 48 1014.2
20260831203848 91 157 1.0 5.0 0.00 0.00 0.00 50 1014.1
20260831203343 91 350 1.0 2.0 0.00 0.00 0.00 50 1014.2
20260831202841 91 60 2.0 3.0 0.00 0.00 0.00 50 1014.0
20260831202336 91 198 1.0 3.0 0.00 0.00 0.00 49 1014.2
20260831201836 90 202 1.0 5.0 0.00 0.00 0.00 50 1014.0
20260831201335 91 270 2.0 7.0 0.00 0.00 0.00 51 1014.2
20260831200831 90 193 1.0 5.0 0.00 0.00 0.00 53 1014.2
20260831200325 90 334 2.0 7.0 0.00 0.00 0.00 54 1014.1
20260831195821 91 304 2.0 3.0 0.00 0.00 0.00 53 1014.1
20260831195317 90 220 1.0 3.0 0.00 0.00 0.00 53 1013.8
20260831194812 90 330 2.0 6.0 0.00 0.00 0.00 56 1013.8
20260831194307 91 227 1.0 3.0 0.00 0.00 0.00 55 1013.6
20260831193806 91 184 0.0 2.0 0.00 0.00 0.00 56 1013.9
20260831193301 91 172 1.0 5.0 0.00 0.00 0.00 57 1013.8
20260831192756 89 296 2.0 3.0 0.00 0.00 0.00 57 1014.1
20260831192251 88 44 1.0 7.0 0.00 0.00 0.00 58 1014.0
20260831191747 89 90 2.0 5.0 0.00 0.00 0.00 59 1014.0
20260831191244 89 118 2.0 2.0 0.00 0.00 0.00 56 1013.9
20260831190739 89 181 0.0 1.0 0.00 0.00 0.00 60 1013.8
20260831190238 88 255 2.0 6.0 0.00 0.00 0.00 60 1013.7
20260831185733 87 146 0.0 3.0 0.00 0.00 0.00 63 1013.8
20260831185229 87 324 3.0 3.0 0.00 0.00 0.00 64 1013.8
20260831184728 87 138 2.0 7.0 0.00 0.00 0.00 64 1013.7
20260831184224 88 257 3.0 3.0 0.00 0.00 0.00 59 1013.7
20260831183723 87 82 3.0 5.0 0.00 0.00 0.00 60 1013.8
20260831183218 88 196 2.0 2.0 0.00 0.00 0.00 59 1013.9
20260831182717 88 239 1.0 6.0 0.00 0.00 0.00 56 1013.9
20260831182213 88 240 1.0 8.0 0.00 0.00 0.00 62 1014.0
20260831181712 88 180 1.0 5.0 0.00 0.00 0.00 57 1013.8
20260831181208 89 164 0.0 1.0 0.00 0.00 0.00 69 1014.0
20260831180702 87 200 2.0 2.0 0.00 0.00 0.00 67 1014.0
20260831180152 87 175 2.0 3.0 0.00 0.00 0.00 72 1013.9
20260831175651 87 185 1.0 2.0 0.00 0.00 0.00 72 1013.8
20260831175148 87 194 1.0 6.0 0.00 0.00 0.00 72 1013.8
20260831174643 86 160 1.0 2.0 0.00 0.00 0.00 74 1014.0
20260831174138 86 123 1.0 3.0 0.00 0.00 0.00 74 1014.2
20260831173636 85 334 1.0 5.0 0.00 0.00 0.00 75 1014.1
20260831173133 85 355 3.0 5.0 0.00 0.00 0.00 75 1014.1
20260831172632 85 345 4.0 5.0 0.00 0.00 0.00 75 1014.2
20260831172132 85 207 2.0 3.0 0.00 0.00 0.00 76 1014.4
20260831171627 84 163 1.0 3.0 0.00 0.00 0.00 77 1014.1
20260831171125 85 70 3.0 5.0 0.00 0.00 0.00 77 1014.1
20260831170621 84 164 1.0 1.0 0.00 0.00 0.00 80 1014.2
20260831170118 84 262 1.0 5.0 0.00 0.00 0.00 78 1014.1
20260831165613 84 171 1.0 2.0 0.00 0.00 0.00 79 1014.1
20260831165110 84 249 2.0 2.0 0.00 0.00 0.00 78 1014.1
20260831164605 84 175 1.0 5.0 0.00 0.00 0.00 79 1013.9
20260831164101 84 210 2.0 2.0 0.00 0.00 0.00 80 1013.8
20260831163555 84 162 1.0 1.0 0.00 0.00 0.00 79 1013.9
20260831163051 83 236 1.0 2.0 0.00 0.00 0.00 79 1014.0
20260831162550 83 155 2.0 3.0 0.00 0.00 0.00 79 1014.1
20260831162048 83 208 1.0 5.0 0.00 0.00 0.00 81 1013.9
20260831161544 82 241 3.0 5.0 0.00 0.00 0.00 82 1013.9
20260831161041 82 172 2.0 5.0 0.00 0.00 0.00 83 1013.9
20260831160539 82 230 1.0 2.0 0.00 0.00 0.00 82 1013.8
20260831160036 82 261 2.0 2.0 0.00 0.00 0.00 83 1013.8
20260831155530 82 227 2.0 2.0 0.00 0.00 0.00 83 1014.0
20260831155025 82 212 2.0 6.0 0.00 0.00 0.00 83 1014.1
20260831154521 82 247 1.0 2.0 0.00 0.00 0.00 83 1013.9
20260831154020 81 237 1.0 3.0 0.00 0.00 0.00 84 1014.0
20260831153515 81 102 2.0 3.0 0.00 0.00 0.00 83 1013.6
20260831153012 82 200 4.0 6.0 0.00 0.00 0.00 83 1013.7
20260831152507 81 232 1.0 1.0 0.00 0.00 0.00 84 1013.5
20260831152002 80 166 1.0 5.0 0.00 0.00 0.00 85 1013.5
20260831151501 80 107 0.0 2.0 0.00 0.00 0.00 86 1013.6
20260831150956 80 222 2.0 3.0 0.00 0.00 0.00 86 1013.2
20260831150452 79 125 0.0 1.0 0.00 0.00 0.00 86 1013.4
20260831145951 79 231 1.0 5.0 0.00 0.00 0.00 87 1013.1
20260831145447 79 143 1.0 5.0 0.00 0.00 0.00 88 1013.2
20260831144943 78 167 0.0 2.0 0.00 0.00 0.00 88 1013.2
20260831144438 78 151 2.0 2.0 0.00 0.00 0.00 88 1013.1
20260831143933 78 179 3.0 5.0 0.00 0.00 0.00 88 1013.0
20260831143428 78 194 2.0 3.0 0.00 0.00 0.00 88 1013.0
20260831142924 77 169 5.0 5.0 0.00 0.00 0.00 89 1012.7
20260831142420 77 259 4.0 6.0 0.00 0.00 0.00 89 1013.1
20260831141914 78 219 3.0 3.0 0.00 0.00 0.00 89 1012.8
20260831141408 77 192 1.0 2.0 0.00 0.00 0.00 89 1012.8
20260831140903 76 228 1.0 3.0 0.00 0.00 0.00 90 1012.5
20260831140358 76 252 3.0 3.0 0.00 0.00 0.00 91 1012.7
20260831135857 76 268 2.0 3.0 0.00 0.00 0.00 91 1012.6
20260831135356 76 133 1.0 1.0 0.00 0.00 0.00 92 1012.5
20260831134852 75 169 2.0 3.0 0.00 0.00 0.00 92 1012.5
20260831134348 75 138 1.0 3.0 0.00 0.00 0.00 92 1012.4
20260831133847 75 221 3.0 5.0 0.00 0.00 0.00 93 1012.4
20260831133342 74 144 3.0 5.0 0.00 0.00 0.00 94 1012.4
20260831132837 74 226 2.0 3.0 0.00 0.00 0.00 95 1012.3
20260831132332 73 192 0.0 2.0 0.00 0.00 0.00 96 1012.3
20260831131832 73 241 3.0 3.0 0.00 0.00 0.00 97 1012.1
20260831131328 73 119 0.0 2.0 0.00 0.00 0.00 98 1012.3
20260831130823 72 217 1.0 1.0 0.00 0.00 0.00 99 1012.1
20260831130319 72 157 1.0 3.0 0.00 0.00 0.00 99 1011.8
20260831125818 72 232 2.0 3.0 0.00 0.00 0.00 99 1012.2
20260831125313 71 132 0.0 1.0 0.00 0.00 0.00 99 1012.0
20260831124813 71 180 0.0 1.0 0.00 0.00 0.00 99 1011.7
20260831124310 71 168 1.0 3.0 0.00 0.00 0.00 99 1012.1
20260831123809 71 157 0.0 3.0 0.00 0.00 0.00 99 1012.1
20260831123308 71 148 0.0 0.0 0.00 0.00 0.00 99 1012.0
20260831122803 71 166 0.0 1.0 0.00 0.00 0.00 99 1011.8
20260831122258 71 146 0.0 0.0 0.00 0.00 0.00 99 1012.0
20260831121753 71 181 1.0 2.0 0.00 0.00 0.00 99 1012.0
20260831121249 70 115 0.0 0.0 0.00 0.00 0.00 99 1012.0
20260831120744 70 159 0.0 0.0 0.00 0.00 0.00 99 1011.7
20260831120239 70 129 0.0 0.0 0.00 0.00 0.00 99 1011.6
20260831115734 70 132 0.0 0.0 0.00 0.00 0.00 99 1011.5
20260831115230 70 110 0.0 0.0 0.00 0.00 0.00 99 1011.5
20260831114729 70 124 0.0 0.0 0.00 0.00 0.00 99 1011.6
20260831114229 70 130 0.0 0.0 0.00 0.00 0.00 99 1011.5
20260831113725 70 121 0.0 0.0 0.00 0.00 0.00 99 1011.4
20260831113219 70 113 0.0 0.0 0.00 0.00 0.00 99 1011.2
20260831112718 70 111 0.0 0.0 0.00 0.00 0.00 99 1011.1
20260831112214 70 153 0.0 1.0 0.00 0.00 0.00 99 1011.1
20260831111709 70 114 0.0 0.0 0.00 0.00 0.00 99 1010.9
20260831111206 70 97 0.0 0.0 0.00 0.00 0.00 99 1011.0
20260831110701 70 109 0.0 0.0 0.00 0.00 0.00 99 1011.0
20260831110156 70 106 0.0 0.0 0.00 0.00 0.00 99 1011.0
20260831105655 70 108 0.0 0.0 0.00 0.00 0.00 99 1011.0
20260831105150 70 121 0.0 0.0 0.00 0.00 0.00 99 1010.9
20260831104645 70 115 0.0 0.0 0.00 0.00 0.00 99 1011.0
20260831104142 70 98 0.0 0.0 0.00 0.00 0.00 99 1011.0
20260831103637 70 123 0.0 1.0 0.00 0.00 0.00 99 1010.8
20260831103132 70 111 0.0 0.0 0.00 0.00 0.00 99 1010.9
20260831102632 70 114 0.0 0.0 0.00 0.00 0.00 99 1010.8
20260831102127 70 106 0.0 1.0 0.00 0.00 0.00 99 1011.0
20260831101627 70 105 0.0 0.0 0.00 0.00 0.00 99 1010.9
20260831101123 70 88 0.0 0.0 0.00 0.00 0.00 99 1011.0
20260831100619 71 100 0.0 0.0 0.00 0.00 0.00 98 1010.8
20260831100115 71 119 2.0 3.0 0.00 0.00 0.00 98 1011.0
20260831095613 71 113 0.0 0.0 0.00 0.00 0.00 98 1010.9
20260831095108 71 105 0.0 0.0 0.00 0.00 0.00 98 1011.1
20260831094603 71 106 1.0 1.0 0.00 0.00 0.00 98 1011.0
20260831094100 71 112 1.0 3.0 0.00 0.00 0.00 98 1010.9
20260831093554 71 109 0.0 1.0 0.00 0.00 0.00 98 1010.8
20260831093051 71 8 0.0 1.0 0.00 0.00 0.00 98 1010.9
20260831092547 71 115 0.0 1.0 0.00 0.00 0.00 97 1010.8
20260831092042 71 124 0.0 1.0 0.00 0.00 0.00 97 1010.8
20260831091542 71 105 1.0 2.0 0.00 0.00 0.00 97 1010.7
20260831091038 71 103 0.0 2.0 0.00 0.00 0.00 97 1011.1
20260831090533 71 107 1.0 1.0 0.00 0.00 0.00 97 1011.1
20260831090029 71 101 0.0 1.0 0.00 0.00 0.00 97 1010.9
20260831085524 71 134 1.0 3.0 0.00 0.00 0.00 97 1011.1
20260831085019 71 132 0.0 3.0 0.00 0.00 0.00 97 1011.2
20260831084515 71 137 1.0 1.0 0.00 0.00 0.00 97 1010.8
20260831084011 71 102 0.0 0.0 0.00 0.00 0.00 97 1010.8
20260831083506 71 114 0.0 2.0 0.00 0.00 0.00 96 1010.8
20260831083000 71 131 2.0 3.0 0.00 0.00 0.00 96 1010.8
20260831082500 71 131 0.0 1.0 0.00 0.00 0.00 96 1010.7
20260831081954 71 107 1.0 5.0 0.00 0.00 0.00 96 1010.6